Location: Macksville High School
(37.9611°N, 99.9654°W)
Time: 19:58:34
(UTC+00:00)

OAO 2 Rocket - Pass Details

Date: 17 January 2021
Orbit: 676 x 745 km, 35.0° (Epoch: 26 February)

Event Time Altitude Azimuth Distance (km) Brightness Sun altitude
Exits shadow 13:03:32 - 252° (WSW) 2,352 5.5 -10.0°
Reaches altitude 10° 13:04:12 10° 251° (WSW) 2,100 5.3 -9.9°
Maximum altitude 13:09:01 58° 173° (S) 787 3.8 -9.0°
Drops below altitude 10° 13:13:52 10° 94° (E) 2,120 7.3 -8.1°
Sets 13:16:18 0° 91° (E) 3,045 8.2 -7.6°
